(95311) = 2002 CZ102

Discovered at Socorro on 2002-02-07 by LINEAR.

Orbit

Orbit type: Main Belt

Note: WebGL enabled browser required.

epoch2024-03-31.0
epoch JD2460400.5
perihelion date2023-04-14.73006
perihelion JD2460049.23006
argument of perihelion (°)42.68591
ascending node (°)115.92231
inclination (°)4.09211
eccentricity0.0427808
perihelion distance (AU)2.9091905
Tisserand w.r.t. Jupiter3.2
ΔV w.r.t. Earth (km/sec)10.7
semimajor axis (AU)3.0392103
mean anomaly (°)65.34370
mean daily motion (°/day)0.18602130
aphelion distance (AU)3.169
period (years)5.3
P-vector [x]-0.92955360
P-vector [y]0.31609392
P-vector [z]0.18977549
Q-vector [x]-0.36305781
Q-vector [y]-0.87438898
Q-vector [z]-0.32192069
absolute magnitude15.2
phase slope0.15
uncertainty0
referenceMPEC 2024-F50
observations used759
oppositions20
arc length (days)11647
first opposition used1992
last opposition used2024
residual rms (arc-secs)0.75
perturbers coarse indicatorM-v
perturbers precise indicator003Ek
first observation date used1992-04-29.0
last observation date used2024-03-19.0
computer nameMPCLINUX
JD of orbit computation2456760.883468
perihelion JD uncertainty (days)4.7208E-04
argument of perihelion uncertainty (°)1.2229E-04
ascending node uncertainty (°)8.3610E-05
inclination uncertainty (°)4.0369E-06
eccentricity uncertainty 5.0189E-08
perihelion distance uncertainty (AU)1.5278E-07
Minimum Orbit Intersection Distances (in AU)
for orbit epoch: 2460400.5, reference: E2024-F50
Mercury2.51653
Venus2.19025
Earth1.92029
Mars1.244
Jupiter1.8057
Saturn6.03722
Uranus15.5321
Neptune26.7014

Observations

777 total observations over interval: 1992 04 29.29734 – 2024 03 19.637212
These data are available for download (format description).

Date (UT) J2000 RA J2000 Dec Magn Location Ref
1992 04 29.29734 14 46 22.37 -09 49 27.5   691 – Steward Observatory, Kitt Peak-Spacewatch MPS 55453
1992 04 29.34970 14 46 19.91 -09 49 16.7 19.7 V 691 – Steward Observatory, Kitt Peak-Spacewatch MPS 55453
1997 04 13.73198 12 58 55.72 +00 17 03.7 18.6   327 – Peking Observatory, Xinglong Station MPS 55453
1997 04 13.74125 12 58 55.30 +00 17 05.1   327 – Peking Observatory, Xinglong Station MPS 55453
1997 04 13.74994 12 58 54.88 +00 17 07.7   327 – Peking Observatory, Xinglong Station MPS 55453
2000 12 30.23717 04 49 09.37 +19 02 35.7 20.4   704 – Lincoln Laboratory ETS, New Mexico MPS 55453
2000 12 30.25228 04 49 08.54 +19 02 35.9 19.9   704 – Lincoln Laboratory ETS, New Mexico MPS 55453
2000 12 30.26730 04 49 07.94 +19 02 36.0 20.0   704 – Lincoln Laboratory ETS, New Mexico MPS 55453
2000 12 30.28220 04 49 07.24 +19 02 37.3 19.8   704 – Lincoln Laboratory ETS, New Mexico MPS 55453
2002 02 07.38767 11 38 58.63 +06 47 17.6 19.9   704 – Lincoln Laboratory ETS, New Mexico MPS 50276
2002 02 07.41709 11 38 57.92 +06 47 26.7 20.7   704 – Lincoln Laboratory ETS, New Mexico MPS 50276
2002 02 07.43164 11 38 57.48 +06 47 30.0 20.1   704 – Lincoln Laboratory ETS, New Mexico MPS 50276
2002 02 07.44633 11 38 57.26 +06 47 33.3 20.0   704 – Lincoln Laboratory ETS, New Mexico MPS 50276
2002 02 10.38418 11 37 41.80 +07 01 24.2 19.9   704 – Lincoln Laboratory ETS, New Mexico MPS 50276
2002 02 10.39844 11 37 41.41 +07 01 28.3 20.1   704 – Lincoln Laboratory ETS, New Mexico MPS 50276
2002 02 10.42698 11 37 40.53 +07 01 35.1 20.4   704 – Lincoln Laboratory ETS, New Mexico MPS 50276
2002 02 10.44126 11 37 40.16 +07 01 40.9 20.3   704 – Lincoln Laboratory ETS, New Mexico MPS 50276
2002 02 12.44773 11 36 42.52 +07 11 39.5 19.1   704 – Lincoln Laboratory ETS, New Mexico MPS 55453
2002 02 12.46195 11 36 42.11 +07 11 43.1 19.5   704 – Lincoln Laboratory ETS, New Mexico MPS 55453
2002 02 12.47618 11 36 41.61 +07 11 47.2 19.9   704 – Lincoln Laboratory ETS, New Mexico MPS 55453
2002 02 12.49038 11 36 41.21 +07 11 51.3 19.9   704 – Lincoln Laboratory ETS, New Mexico MPS 55453
2002 02 13.39043 11 36 13.92 +07 16 29.0 19.7   704 – Lincoln Laboratory ETS, New Mexico MPS 55453
2002 02 13.40537 11 36 13.50 +07 16 33.6 19.8   704 – Lincoln Laboratory ETS, New Mexico MPS 55453
2002 02 13.42103 11 36 12.90 +07 16 37.8 19.6   704 – Lincoln Laboratory ETS, New Mexico MPS 55453
2002 02 13.43568 11 36 12.54 +07 16 40.7 20.1   704 – Lincoln Laboratory ETS, New Mexico MPS 55453
2002 02 20.30398 11 32 15.72 +07 54 01.6 19.5   704 – Lincoln Laboratory ETS, New Mexico MPS 55453
2002 02 20.31785 11 32 15.17 +07 54 05.5 19.9   704 – Lincoln Laboratory ETS, New Mexico MPS 55453
2002 02 20.33171 11 32 14.67 +07 54 09.6 19.7   704 – Lincoln Laboratory ETS, New Mexico MPS 55453
2002 02 20.34566 11 32 14.02 +07 54 14.1 19.7   704 – Lincoln Laboratory ETS, New Mexico MPS 55453
2002 02 20.36005 11 32 13.46 +07 54 18.4 20.2   704 – Lincoln Laboratory ETS, New Mexico MPS 55453
2002 02 24.40500 11 29 34.18 +08 17 34.9 19.3   644 – Palomar Mountain/NEAT MPS 55453
2002 02 24.42628 11 29 33.26 +08 17 42.5 19.5   644 – Palomar Mountain/NEAT MPS 55453
2002 02 24.44859 11 29 32.33 +08 17 50.4 20.1   644 – Palomar Mountain/NEAT MPS 55453
2002 03 05.30251 11 23 08.79 +09 09 46.0 18.5 R 699 – Lowell Observatory-LONEOS MPS 55453
2002 03 05.31833 11 23 08.08 +09 09 52.1   699 – Lowell Observatory-LONEOS MPS 55453
2002 03 05.33418 11 23 07.32 +09 09 56.7   699 – Lowell Observatory-LONEOS MPS 55453
2002 03 05.34986 11 23 06.60 +09 10 03.3   699 – Lowell Observatory-LONEOS MPS 55453
2002 03 09.29080 11 20 07.29 +09 32 44.7 18.7   704 – Lincoln Laboratory ETS, New Mexico MPS 55453
2002 03 09.31083 11 20 06.40 +09 32 53.4 19.0   704 – Lincoln Laboratory ETS, New Mexico MPS 55453
2002 03 09.33078 11 20 05.36 +09 32 59.7 18.9   704 – Lincoln Laboratory ETS, New Mexico MPS 55453
2002 03 09.35065 11 20 04.41 +09 33 05.9 19.1   704 – Lincoln Laboratory ETS, New Mexico MPS 55453
2002 03 09.37037 11 20 03.50 +09 33 14.0 19.1   704 – Lincoln Laboratory ETS, New Mexico MPS 55453
2002 03 10.44744 11 19 14.29 +09 39 17.6 19.3   608 – Haleakala-AMOS MPS 55453
2002 03 10.45835 11 19 13.80 +09 39 21.5 19.6   608 – Haleakala-AMOS MPS 55453
2002 03 10.46912 11 19 13.25 +09 39 25.5 19.8   608 – Haleakala-AMOS MPS 55453
2002 03 12.255650 11 17 51.710 +09 49 20.27 19.51 V 645 – Apache Point-Sloan Digital Sky Survey MPS 80061
2002 03 12.259122 11 17 51.549 +09 49 21.47 20.37   645 – Apache Point-Sloan Digital Sky Survey MPS 80061
2002 03 12.48988 11 17 40.77 +09 50 37.5 19.2   644 – Palomar Mountain/NEAT MPS 55453
2002 03 12.50033 11 17 40.30 +09 50 41.0 19.5   644 – Palomar Mountain/NEAT MPS 55453
2002 03 12.51111 11 17 39.78 +09 50 44.3 19.3   644 – Palomar Mountain/NEAT MPS 55453
2002 03 22.42406 11 10 23.28 +10 40 43.0 19.3   644 – Palomar Mountain/NEAT MPS 55453
2002 03 22.44538 11 10 22.38 +10 40 48.5 19.5   644 – Palomar Mountain/NEAT MPS 55453
2002 03 22.46829 11 10 21.36 +10 40 54.6 19.9   644 – Palomar Mountain/NEAT MPS 55453
2002 04 02.27164 11 03 38.01 +11 21 58.0 19.4   644 – Palomar Mountain/NEAT MPS 55453
2002 04 02.29253 11 03 37.28 +11 22 01.6 19.7   644 – Palomar Mountain/NEAT MPS 55453
2002 04 02.31350 11 03 36.62 +11 22 05.2 19.9   644 – Palomar Mountain/NEAT MPS 55453
2002 04 15.13338 10 58 15.99 +11 48 20.7 19.3   704 – Lincoln Laboratory ETS, New Mexico MPS 54722
2002 04 15.16125 10 58 15.48 +11 48 22.6 19.5   704 – Lincoln Laboratory ETS, New Mexico MPS 54722
2002 04 15.17543 10 58 15.20 +11 48 23.5 19.5   704 – Lincoln Laboratory ETS, New Mexico MPS 54722
2002 04 15.18938 10 58 14.89 +11 48 24.6 20.1   704 – Lincoln Laboratory ETS, New Mexico MPS 54722
2004 07 16.33143 22 46 43.97 -10 41 37.3 19.1 R 807 – Cerro Tololo Observatory, La Serena MPS 111844
2004 07 16.38293 22 46 43.23 -10 41 46.5   807 – Cerro Tololo Observatory, La Serena MPS 111844
2004 08 10.22543 22 35 38.79 -12 26 23.8 19.6   704 – Lincoln Laboratory ETS, New Mexico MPS 111098
2004 08 10.23613 22 35 38.38 -12 26 27.6 19.5   704 – Lincoln Laboratory ETS, New Mexico MPS 111098
2004 08 10.25109 22 35 37.81 -12 26 29.9 20.2   704 – Lincoln Laboratory ETS, New Mexico MPS 111098
2004 08 10.26180 22 35 37.32 -12 26 34.2 19.9   704 – Lincoln Laboratory ETS, New Mexico MPS 111098
2004 08 10.27248 22 35 36.91 -12 26 38.1 20.2   704 – Lincoln Laboratory ETS, New Mexico MPS 111098
2004 09 21.16924 22 06 41.95 -15 40 03.6 19.5   704 – Lincoln Laboratory ETS, New Mexico MPS 114310
2004 09 21.20464 22 06 40.87 -15 40 11.9 20.0   704 – Lincoln Laboratory ETS, New Mexico MPS 114310
2004 09 21.21651 22 06 40.33 -15 40 13.1 19.6   704 – Lincoln Laboratory ETS, New Mexico MPS 114310
2005 10 25.34143 03 39 51.15 +13 55 54.1 19.5 V 703 – Catalina Sky Survey MPS 147070
2005 10 25.35004 03 39 50.90 +13 55 53.1 19.1 V 703 – Catalina Sky Survey MPS 147070
2005 10 25.35865 03 39 50.43 +13 55 52.3 18.8 V 703 – Catalina Sky Survey MPS 147070
2005 10 25.36350 03 39 50.34 +13 55 50.1 19.5 V 691 – Steward Observatory, Kitt Peak-Spacewatch MPS 147070
2005 10 25.36724 03 39 50.14 +13 55 51.8 18.9 V 703 – Catalina Sky Survey MPS 147070
2005 10 25.38076 03 39 49.65 +13 55 47.5 19.5 V 691 – Steward Observatory, Kitt Peak-Spacewatch MPS 147070
2005 10 25.39817 03 39 48.93 +13 55 44.6 19.6 V 691 – Steward Observatory, Kitt Peak-Spacewatch MPS 147070
2005 10 28.25894 03 37 52.04 +13 47 53.8 19.3   704 – Lincoln Laboratory ETS, New Mexico MPS 148984
2005 10 28.27373 03 37 51.37 +13 47 52.2 20.1   704 – Lincoln Laboratory ETS, New Mexico MPS 148984
2005 10 28.28580 03 37 50.88 +13 47 48.9 19.8   704 – Lincoln Laboratory ETS, New Mexico MPS 148984
2005 10 28.29766 03 37 50.34 +13 47 46.9 19.7   704 – Lincoln Laboratory ETS, New Mexico MPS 148984
2005 10 28.30949 03 37 49.85 +13 47 44.6 20.0   704 – Lincoln Laboratory ETS, New Mexico MPS 148984
2005 10 29.31650 03 37 06.75 +13 44 57.0 19.5 V 691 – Steward Observatory, Kitt Peak-Spacewatch MPS 148984
2005 10 29.33384 03 37 05.96 +13 44 54.0 19.6 V 691 – Steward Observatory, Kitt Peak-Spacewatch MPS 148984
2005 10 29.35118 03 37 05.19 +13 44 51.2 19.6 V 691 – Steward Observatory, Kitt Peak-Spacewatch MPS 148984
